Skip Navigation
Skip Navigation

Today's Weather Data

Time Wind Dir Wind Spd
mph
Wind Gust
mph
Hum In
%
Humidity
%
Temp In
F
Temp
F
Raw Barom
in
Tot Rain
in
UV Solar
W/sqm
DailyRain
in
HourRain
in
24HrRain
in
RainRate
in/hr
5/26/2016 12:01:20a 333 0 1 32 67 74.4 53.3 30.12 11.54 0.0 0 0.00 0.00 0.00 0.000
5/26/2016 12:02:20a 333 0 1 32 67 74.4 53.3 30.12 11.54 0.0 0 0.00 0.00 0.00 0.000
5/26/2016 12:03:20a 333 0 1 32 67 74.4 53.3 30.13 11.54 0.0 0 0.00 0.00 0.00 0.000
5/26/2016 12:04:23a 333 0 1 32 67 74.2 53.2 30.12 11.54 0.0 0 0.00 0.00 0.00 0.000
5/26/2016 12:05:23a 334 0 0 32 67 74.2 53.2 30.12 11.54 0.0 0 0.00 0.00 0.00 0.000
5/26/2016 12:06:23a 334 0 0 32 67 74.2 53.1 30.12 11.54 0.0 0 0.00 0.00 0.00 0.000
5/26/2016 12:07:24a 334 0 0 32 67 74.2 53.1 30.12 11.54 0.0 0 0.00 0.00 0.00 0.000
5/26/2016 12:08:24a 334 0 0 32 67 74.2 53.1 30.12 11.54 0.0 0 0.00 0.00 0.00 0.000
5/26/2016 12:09:24a 334 0 0 32 67 74.2 53.0 30.12 11.54 0.0 0 0.00 0.00 0.00 0.000
5/26/2016 12:10:24a 334 0 0 32 67 74.2 53.0 30.12 11.54 0.0 0 0.00 0.00 0.00 0.000
5/26/2016 12:11:24a 333 0 0 32 67 74.2 53.0 30.12 11.54 0.0 0 0.00 0.00 0.00 0.000
5/26/2016 12:12:24a 333 0 0 32 67 74.2 52.9 30.12 11.54 0.0 0 0.00 0.00 0.00 0.000
5/26/2016 12:13:24a 333 0 0 32 67 74.2 52.9 30.13 11.54 0.0 0 0.00 0.00 0.00 0.000
5/26/2016 12:14:24a 333 0 1 32 67 74.2 52.9 30.13 11.54 0.0 0 0.00 0.00 0.00 0.000
5/26/2016 12:15:25a 334 0 1 32 67 74.0 52.8 30.12 11.54 0.0 0 0.00 0.00 0.00 0.000
5/26/2016 12:16:25a 334 0 1 32 67 74.0 52.8 30.12 11.54 0.0 0 0.00 0.00 0.00 0.000
5/26/2016 12:17:25a 334 0 1 32 67 74.0 52.7 30.12 11.54 0.0 0 0.00 0.00 0.00 0.000
5/26/2016 12:18:25a 334 0 1 32 67 74.0 52.7 30.12 11.54 0.0 0 0.00 0.00 0.00 0.000
5/26/2016 12:19:25a 333 0 1 32 67 74.0 52.7 30.12 11.54 0.0 0 0.00 0.00 0.00 0.000
5/26/2016 12:20:25a 333 0 0 32 67 74.0 52.6 30.12 11.54 0.0 0 0.00 0.00 0.00 0.000
5/26/2016 12:21:25a 334 0 0 32 68 74.0 52.6 30.12 11.54 0.0 0 0.00 0.00 0.00 0.000
5/26/2016 12:22:26a 334 0 0 32 68 74.0 52.6 30.12 11.54 0.0 0 0.00 0.00 0.00 0.000
5/26/2016 12:23:26a 334 0 0 32 68 74.0 52.6 30.12 11.54 0.0 0 0.00 0.00 0.00 0.000
5/26/2016 12:24:26a 334 0 1 32 68 74.0 52.5 30.12 11.54 0.0 0 0.00 0.00 0.00 0.000
5/26/2016 12:25:26a 333 0 1 32 68 74.0 52.5 30.12 11.54 0.0 0 0.00 0.00 0.00 0.000
5/26/2016 12:26:26a 334 1 2 32 68 73.9 52.5 30.12 11.54 0.0 0 0.00 0.00 0.00 0.000
5/26/2016 12:27:26a 334 2 3 32 68 73.9 52.5 30.12 11.54 0.0 0 0.00 0.00 0.00 0.000
5/26/2016 12:28:26a 333 2 3 32 68 73.9 52.4 30.12 11.54 0.0 0 0.00 0.00 0.00 0.000
5/26/2016 12:29:26a 334 3 3 32 68 73.9 52.4 30.12 11.54 0.0 0 0.00 0.00 0.00 0.000
5/26/2016 12:30:26a 334 0 3 32 68 73.9 52.4 30.12 11.54 0.0 0 0.00 0.00 0.00 0.000
5/26/2016 12:31:26a 334 1 3 32 68 73.9 52.4 30.12 11.54 0.0 0 0.00 0.00 0.00 0.000
5/26/2016 12:32:26a 333 2 3 32 68 73.9 52.4 30.12 11.54 0.0 0 0.00 0.00 0.00 0.000
5/26/2016 12:33:26a 334 2 3 32 68 73.9 52.4 30.12 11.54 0.0 0 0.00 0.00 0.00 0.000
5/26/2016 12:34:27a 333 3 3 32 69 73.9 52.4 30.12 11.54 0.0 0 0.00 0.00 0.00 0.000
5/26/2016 12:35:30a 334 1 3 32 69 73.9 52.4 30.12 11.54 0.0 0 0.00 0.00 0.00 0.000
5/26/2016 12:36:30a 333 2 3 32 69 73.7 52.4 30.12 11.54 0.0 0 0.00 0.00 0.00 0.000
5/26/2016 12:37:30a 333 2 3 32 69 73.7 52.3 30.11 11.54 0.0 0 0.00 0.00 0.00 0.000
5/26/2016 12:38:39a 334 1 4 32 69 73.7 52.3 30.11 11.54 0.0 0 0.00 0.00 0.00 0.000
5/26/2016 12:39:39a 334 0 4 32 69 73.7 52.3 30.11 11.54 0.0 0 0.00 0.00 0.00 0.000
5/26/2016 12:40:39a 334 3 4 32 69 73.7 52.3 30.11 11.54 0.0 0 0.00 0.00 0.00 0.000
5/26/2016 12:41:39a 334 2 4 32 69 73.7 52.3 30.11 11.54 0.0 0 0.00 0.00 0.00 0.000
5/26/2016 12:42:45a 333 3 4 32 69 73.7 52.3 30.11 11.54 0.0 0 0.00 0.00 0.00 0.000
5/26/2016 12:44:26a 334 3 4 32 69 73.7 52.3 30.11 11.54 0.0 0 0.00 0.00 0.00 0.000
5/26/2016 12:45:27a 333 3 4 32 69 73.7 52.3 30.11 11.54 0.0 0 0.00 0.00 0.00 0.000
5/26/2016 12:46:27a 336 2 4 32 69 73.5 52.3 30.11 11.54 0.0 0 0.00 0.00 0.00 0.000
5/26/2016 12:47:27a 336 2 4 32 69 73.5 52.3 30.11 11.54 0.0 0 0.00 0.00 0.00 0.000
5/26/2016 12:48:27a 336 2 4 32 69 73.5 52.3 30.11 11.54 0.0 0 0.00 0.00 0.00 0.000
5/26/2016 12:49:27a 336 2 4 32 69 73.5 52.3 30.11 11.54 0.0 0 0.00 0.00 0.00 0.000
5/26/2016 12:50:27a 336 1 2 32 69 73.5 52.3 30.11 11.54 0.0 0 0.00 0.00 0.00 0.000
5/26/2016 12:51:27a 336 2 3 32 69 73.5 52.3 30.11 11.54 0.0 0 0.00 0.00 0.00 0.000
5/26/2016 12:52:28a 336 2 3 32 69 73.5 52.3 30.11 11.54 0.0 0 0.00 0.00 0.00 0.000
5/26/2016 12:53:29a 336 1 3 32 69 73.5 52.3 30.11 11.54 0.0 0 0.00 0.00 0.00 0.000
5/26/2016 12:54:29a 336 3 3 32 69 73.5 52.3 30.11 11.54 0.0 0 0.00 0.00 0.00 0.000
5/26/2016 12:55:38a 336 1 3 32 69 73.5 52.3 30.11 11.54 0.0 0 0.00 0.00 0.00 0.000
5/26/2016 12:56:42a 336 0 3 32 69 73.5 52.2 30.11 11.54 0.0 0 0.00 0.00 0.00 0.000
5/26/2016 12:57:45a 336 0 3 32 69 73.3 52.2 30.11 11.54 0.0 0 0.00 0.00 0.00 0.000
5/26/2016 12:58:45a 336 0 3 32 69 73.3 52.2 30.11 11.54 0.0 0 0.00 0.00 0.00 0.000
5/26/2016 12:59:46a 336 0 3 32 69 73.3 52.3 30.11 11.54 0.0 0 0.00 0.00 0.00 0.000
5/26/2016 1:00:46a 336 0 3 32 69 73.3 52.2 30.11 11.54 0.0 0 0.00 0.00 0.00 0.000
5/26/2016 1:01:49a 336 0 3 32 69 73.3 52.2 30.11 11.54 0.0 0 0.00 0.00 0.00 0.000
5/26/2016 1:02:50a 336 0 3 32 69 73.3 52.2 30.11 11.54 0.0 0 0.00 0.00 0.00 0.000
5/26/2016 1:03:53a 336 0 3 32 69 73.3 52.2 30.11 11.54 0.0 0 0.00 0.00 0.00 0.000
5/26/2016 1:04:56a 336 0 3 32 69 73.3 52.2 30.11 11.54 0.0 0 0.00 0.00 0.00 0.000
5/26/2016 1:05:56a 336 0 0 32 69 73.3 52.2 30.11 11.54 0.0 0 0.00 0.00 0.00 0.000
5/26/2016 1:06:56a 336 0 0 32 69 73.3 52.3 30.11 11.54 0.0 0 0.00 0.00 0.00 0.000
5/26/2016 1:07:56a 336 0 0 32 69 73.3 52.2 30.11 11.54 0.0 0 0.00 0.00 0.00 0.000
5/26/2016 1:08:56a 336 0 0 32 69 73.3 52.3 30.11 11.54 0.0 0 0.00 0.00 0.00 0.000
5/26/2016 1:09:56a 336 0 0 32 69 73.3 52.2 30.11 11.54 0.0 0 0.00 0.00 0.00 0.000
5/26/2016 1:10:56a 336 0 0 32 69 73.3 52.2 30.11 11.54 0.0 0 0.00 0.00 0.00 0.000
5/26/2016 1:12:03a 336 0 0 32 69 73.3 52.2 30.11 11.54 0.0 0 0.00 0.00 0.00 0.000
5/26/2016 1:13:06a 336 0 0 32 69 73.3 52.3 30.11 11.54 0.0 0 0.00 0.00 0.00 0.000
5/26/2016 1:14:10a 336 0 0 32 69 73.3 52.2 30.11 11.54 0.0 0 0.00 0.00 0.00 0.000
5/26/2016 1:15:10a 336 2 3 32 69 73.3 52.3 30.11 11.54 0.0 0 0.00 0.00 0.00 0.000
5/26/2016 1:16:10a 336 2 3 32 69 73.3 52.3 30.11 11.54 0.0 0 0.00 0.00 0.00 0.000
5/26/2016 1:17:11a 336 2 3 32 69 73.3 52.3 30.11 11.54 0.0 0 0.00 0.00 0.00 0.000
5/26/2016 1:18:16a 336 0 3 32 69 73.2 52.3 30.11 11.54 0.0 0 0.00 0.00 0.00 0.000
5/26/2016 1:19:20a 336 1 3 32 69 73.2 52.3 30.11 11.54 0.0 0 0.00 0.00 0.00 0.000
5/26/2016 1:20:20a 336 0 3 32 69 73.2 52.3 30.11 11.54 0.0 0 0.00 0.00 0.00 0.000
5/26/2016 1:21:21a 336 0 3 32 69 73.2 52.3 30.11 11.54 0.0 0 0.00 0.00 0.00 0.000
5/26/2016 1:22:24a 336 0 3 32 69 73.2 52.3 30.11 11.54 0.0 0 0.00 0.00 0.00 0.000
5/26/2016 1:23:24a 336 0 0 32 69 73.2 52.3 30.11 11.54 0.0 0 0.00 0.00 0.00 0.000
5/26/2016 1:24:25a 336 0 0 32 69 73.2 52.3 30.11 11.54 0.0 0 0.00 0.00 0.00 0.000
5/26/2016 1:25:25a 336 0 0 32 69 73.2 52.2 30.11 11.54 0.0 0 0.00 0.00 0.00 0.000
5/26/2016 1:26:29a 336 0 0 32 69 73.2 52.2 30.11 11.54 0.0 0 0.00 0.00 0.00 0.000
5/26/2016 1:28:35a 336 0 0 32 69 73.2 52.2 30.11 11.54 0.0 0 0.00 0.00 0.00 0.000
5/26/2016 1:29:42a 336 0 0 32 69 73.2 52.1 30.10 11.54 0.0 0 0.00 0.00 0.00 0.000
5/26/2016 1:30:42a 336 0 0 32 69 73.2 52.1 30.10 11.54 0.0 0 0.00 0.00 0.00 0.000
5/26/2016 1:31:46a 336 0 0 32 69 73.2 52.1 30.10 11.54 0.0 0 0.00 0.00 0.00 0.000
5/26/2016 1:32:46a 336 0 0 32 69 73.2 52.1 30.11 11.54 0.0 0 0.00 0.00 0.00 0.000
5/26/2016 1:33:46a 336 0 0 32 69 73.2 52.0 30.11 11.54 0.0 0 0.00 0.00 0.00 0.000
5/26/2016 1:34:47a 336 0 0 32 69 73.2 52.0 30.11 11.54 0.0 0 0.00 0.00 0.00 0.000
5/26/2016 1:35:47a 336 0 0 32 69 73.2 52.0 30.11 11.54 0.0 0 0.00 0.00 0.00 0.000
5/26/2016 1:36:51a 336 0 0 32 69 73.2 52.0 30.11 11.54 0.0 0 0.00 0.00 0.00 0.000
5/26/2016 1:37:51a 336 0 0 32 69 73.2 51.9 30.11 11.54 0.0 0 0.00 0.00 0.00 0.000
5/26/2016 1:38:51a 336 0 0 32 69 73.2 51.9 30.11 11.54 0.0 0 0.00 0.00 0.00 0.000
5/26/2016 1:39:51a 336 0 0 32 69 73.2 51.9 30.11 11.54 0.0 0 0.00 0.00 0.00 0.000
5/26/2016 1:40:51a 336 0 0 32 69 73.2 51.8 30.11 11.54 0.0 0 0.00 0.00 0.00 0.000
5/26/2016 1:41:51a 336 0 0 32 69 73.2 51.8 30.11 11.54 0.0 0 0.00 0.00 0.00 0.000
5/26/2016 1:42:51a 336 0 0 32 69 73.2 51.8 30.10 11.54 0.0 0 0.00 0.00 0.00 0.000
5/26/2016 1:43:51a 336 0 0 32 69 73.2 51.8 30.10 11.54 0.0 0 0.00 0.00 0.00 0.000
5/26/2016 1:44:51a 336 0 0 32 69 73.2 51.8 30.10 11.54 0.0 0 0.00 0.00 0.00 0.000
5/26/2016 1:45:52a 336 0 0 32 69 73.2 51.8 30.10 11.54 0.0 0 0.00 0.00 0.00 0.000
5/26/2016 1:46:52a 336 0 0 32 69 73.2 51.8 30.10 11.54 0.0 0 0.00 0.00 0.00 0.000
5/26/2016 1:47:55a 336 0 0 32 69 73.2 51.8 30.10 11.54 0.0 0 0.00 0.00 0.00 0.000
5/26/2016 1:48:55a 336 0 0 32 69 73.2 51.7 30.10 11.54 0.0 0 0.00 0.00 0.00 0.000
5/26/2016 1:49:55a 336 0 0 32 69 73.2 51.7 30.10 11.54 0.0 0 0.00 0.00 0.00 0.000
5/26/2016 1:50:55a 336 0 0 32 69 73.2 51.7 30.10 11.54 0.0 0 0.00 0.00 0.00 0.000
5/26/2016 1:51:55a 336 0 0 32 69 73.0 51.7 30.10 11.54 0.0 0 0.00 0.00 0.00 0.000
5/26/2016 1:52:55a 336 0 0 32 69 73.0 51.6 30.10 11.54 0.0 0 0.00 0.00 0.00 0.000
5/26/2016 1:53:55a 336 1 2 32 69 73.0 51.6 30.10 11.54 0.0 0 0.00 0.00 0.00 0.000
5/26/2016 1:54:55a 336 2 3 32 69 73.0 51.5 30.10 11.54 0.0 0 0.00 0.00 0.00 0.000
5/26/2016 1:55:55a 336 0 3 32 69 73.0 51.5 30.10 11.54 0.0 0 0.00 0.00 0.00 0.000
5/26/2016 1:56:55a 336 0 3 32 69 73.0 51.5 30.10 11.54 0.0 0 0.00 0.00 0.00 0.000
5/26/2016 1:57:55a 336 0 3 32 70 73.0 51.4 30.10 11.54 0.0 0 0.00 0.00 0.00 0.000
5/26/2016 1:58:55a 336 0 3 32 70 73.0 51.4 30.10 11.54 0.0 0 0.00 0.00 0.00 0.000
5/26/2016 1:59:56a 336 0 3 32 70 73.0 51.4 30.10 11.54 0.0 0 0.00 0.00 0.00 0.000
5/26/2016 2:00:56a 336 0 3 32 70 72.8 51.4 30.10 11.54 0.0 0 0.00 0.00 0.00 0.000
5/26/2016 2:01:56a 336 0 3 32 70 72.8 51.3 30.10 11.54 0.0 0 0.00 0.00 0.00 0.000
5/26/2016 2:02:56a 336 0 3 32 70 72.8 51.3 30.10 11.54 0.0 0 0.00 0.00 0.00 0.000
5/26/2016 2:03:56a 336 0 3 32 70 72.8 51.3 30.10 11.54 0.0 0 0.00 0.00 0.00 0.000
5/26/2016 2:04:56a 336 0 3 32 70 72.8 51.3 30.10 11.54 0.0 0 0.00 0.00 0.00 0.000
5/26/2016 2:05:56a 336 0 0 32 70 72.8 51.3 30.10 11.54 0.0 0 0.00 0.00 0.00 0.000
5/26/2016 2:06:56a 336 0 0 32 70 72.8 51.3 30.10 11.54 0.0 0 0.00 0.00 0.00 0.000
5/26/2016 2:07:56a 336 0 0 32 70 72.7 51.3 30.10 11.54 0.0 0 0.00 0.00 0.00 0.000
5/26/2016 2:08:56a 336 0 0 32 70 72.7 51.3 30.10 11.54 0.0 0 0.00 0.00 0.00 0.000
5/26/2016 2:09:56a 336 0 0 32 70 72.7 51.3 30.10 11.54 0.0 0 0.00 0.00 0.00 0.000
5/26/2016 2:10:57a 336 0 0 32 70 72.7 51.3 30.10 11.54 0.0 0 0.00 0.00 0.00 0.000
5/26/2016 2:11:57a 336 0 0 32 70 72.7 51.3 30.10 11.54 0.0 0 0.00 0.00 0.00 0.000
5/26/2016 2:12:57a 336 0 0 32 71 72.7 51.3 30.10 11.54 0.0 0 0.00 0.00 0.00 0.000
5/26/2016 2:13:57a 336 0 0 32 71 72.7 51.3 30.10 11.54 0.0 0 0.00 0.00 0.00 0.000
5/26/2016 2:14:57a 336 1 1 32 71 72.7 51.3 30.10 11.54 0.0 0 0.00 0.00 0.00 0.000
5/26/2016 2:15:57a 336 0 1 32 71 72.5 51.3 30.10 11.54 0.0 0 0.00 0.00 0.00 0.000
5/26/2016 2:16:57a 336 0 1 32 71 72.5 51.3 30.10 11.54 0.0 0 0.00 0.00 0.00 0.000
5/26/2016 2:17:57a 336 0 1 32 71 72.5 51.3 30.10 11.54 0.0 0 0.00 0.00 0.00 0.000
5/26/2016 2:18:57a 336 0 1 32 71 72.5 51.3 30.10 11.54 0.0 0 0.00 0.00 0.00 0.000
5/26/2016 2:19:57a 336 0 1 32 71 72.5 51.3 30.10 11.54 0.0 0 0.00 0.00 0.00 0.000
5/26/2016 2:20:57a 336 0 0 32 71 72.5 51.3 30.10 11.54 0.0 0 0.00 0.00 0.00 0.000
5/26/2016 2:21:57a 336 0 0 32 71 72.5 51.3 30.10 11.54 0.0 0 0.00 0.00 0.00 0.000
5/26/2016 2:23:00a 336 0 0 33 71 72.3 51.3 30.10 11.54 0.0 0 0.00 0.00 0.00 0.000
5/26/2016 2:24:03a 336 0 0 33 71 72.3 51.3 30.10 11.54 0.0 0 0.00 0.00 0.00 0.000
5/26/2016 2:25:04a 336 0 0 33 71 72.3 51.3 30.10 11.54 0.0 0 0.00 0.00 0.00 0.000
5/26/2016 2:26:04a 336 0 0 33 71 72.3 51.3 30.10 11.54 0.0 0 0.00 0.00 0.00 0.000
5/26/2016 2:27:04a 336 0 0 33 71 72.3 51.3 30.10 11.54 0.0 0 0.00 0.00 0.00 0.000
5/26/2016 2:28:04a 336 0 0 33 71 72.3 51.3 30.10 11.54 0.0 0 0.00 0.00 0.00 0.000
5/26/2016 2:29:04a 336 0 0 33 71 72.3 51.3 30.10 11.54 0.0 0 0.00 0.00 0.00 0.000
5/26/2016 2:30:04a 336 0 0 33 71 72.3 51.3 30.10 11.54 0.0 0 0.00 0.00 0.00 0.000
5/26/2016 2:31:04a 336 0 0 33 71 72.1 51.3 30.10 11.54 0.0 0 0.00 0.00 0.00 0.000
5/26/2016 2:32:04a 336 0 0 33 71 72.1 51.3 30.10 11.54 0.0 0 0.00 0.00 0.00 0.000
5/26/2016 2:33:04a 336 0 0 33 71 72.1 51.3 30.10 11.54 0.0 0 0.00 0.00 0.00 0.000
5/26/2016 2:34:04a 336 0 0 33 71 72.1 51.3 30.10 11.54 0.0 0 0.00 0.00 0.00 0.000
5/26/2016 2:35:04a 336 0 0 33 71 72.1 51.3 30.10 11.54 0.0 0 0.00 0.00 0.00 0.000
5/26/2016 2:36:04a 336 0 0 33 71 72.1 51.3 30.10 11.54 0.0 0 0.00 0.00 0.00 0.000
5/26/2016 2:37:04a 336 0 0 33 71 72.1 51.2 30.10 11.54 0.0 0 0.00 0.00 0.00 0.000
5/26/2016 2:38:04a 336 0 0 33 71 72.1 51.2 30.10 11.54 0.0 0 0.00 0.00 0.00 0.000
5/26/2016 2:39:05a 336 0 0 33 71 72.0 51.2 30.10 11.54 0.0 0 0.00 0.00 0.00 0.000
5/26/2016 2:40:08a 336 0 0 33 71 72.0 51.2 30.10 11.54 0.0 0 0.00 0.00 0.00 0.000
5/26/2016 2:41:08a 336 0 0 33 71 72.0 51.1 30.10 11.54 0.0 0 0.00 0.00 0.00 0.000
5/26/2016 2:42:08a 336 0 0 33 71 72.0 51.1 30.10 11.54 0.0 0 0.00 0.00 0.00 0.000
5/26/2016 2:43:08a 336 0 0 33 71 72.0 51.1 30.10 11.54 0.0 0 0.00 0.00 0.00 0.000
5/26/2016 2:44:08a 336 0 0 33 71 72.0 51.0 30.10 11.54 0.0 0 0.00 0.00 0.00 0.000
5/26/2016 2:45:08a 336 0 0 33 71 72.0 51.0 30.10 11.54 0.0 0 0.00 0.00 0.00 0.000
5/26/2016 2:46:08a 336 0 1 33 71 72.0 51.0 30.10 11.54 0.0 0 0.00 0.00 0.00 0.000
5/26/2016 2:47:08a 336 0 1 33 71 72.0 50.9 30.10 11.54 0.0 0 0.00 0.00 0.00 0.000
5/26/2016 2:48:08a 336 0 1 33 71 72.0 50.9 30.10 11.54 0.0 0 0.00 0.00 0.00 0.000
5/26/2016 2:49:14a 336 0 1 33 71 71.8 50.9 30.10 11.54 0.0 0 0.00 0.00 0.00 0.000
5/26/2016 2:50:14a 336 0 0 33 71 71.8 50.8 30.10 11.54 0.0 0 0.00 0.00 0.00 0.000
5/26/2016 2:51:14a 336 0 0 33 71 71.8 50.8 30.10 11.54 0.0 0 0.00 0.00 0.00 0.000
5/26/2016 2:52:15a 336 0 0 33 71 71.8 50.8 30.10 11.54 0.0 0 0.00 0.00 0.00 0.000
5/26/2016 2:53:15a 336 0 0 33 71 71.8 50.7 30.10 11.54 0.0 0 0.00 0.00 0.00 0.000
5/26/2016 2:54:51a 336 0 0 33 71 71.8 50.7 30.10 11.54 0.0 0 0.00 0.00 0.00 0.000
5/26/2016 2:55:51a 336 0 0 33 71 71.8 50.7 30.10 11.54 0.0 0 0.00 0.00 0.00 0.000
5/26/2016 2:56:51a 336 0 0 33 71 71.8 50.6 30.10 11.54 0.0 0 0.00 0.00 0.00 0.000
5/26/2016 2:57:51a 336 0 0 33 71 71.8 50.6 30.10 11.54 0.0 0 0.00 0.00 0.00 0.000
5/26/2016 2:58:51a 336 0 0 33 71 71.8 50.6 30.10 11.54 0.0 0 0.00 0.00 0.00 0.000
5/26/2016 2:59:51a 336 0 0 33 71 71.6 50.5 30.10 11.54 0.0 0 0.00 0.00 0.00 0.000
5/26/2016 3:00:51a 336 0 0 33 71 71.6 50.5 30.10 11.54 0.0 0 0.00 0.00 0.00 0.000
5/26/2016 3:01:51a 336 0 0 33 71 71.6 50.5 30.10 11.54 0.0 0 0.00 0.00 0.00 0.000
5/26/2016 3:02:51a 336 0 0 33 71 71.6 50.5 30.10 11.54 0.0 0 0.00 0.00 0.00 0.000
5/26/2016 3:03:51a 336 0 0 33 72 71.6 50.4 30.10 11.54 0.0 0 0.00 0.00 0.00 0.000
5/26/2016 3:04:51a 336 0 0 33 72 71.6 50.4 30.10 11.54 0.0 0 0.00 0.00 0.00 0.000
5/26/2016 3:05:51a 336 0 1 33 72 71.6 50.4 30.10 11.54 0.0 0 0.00 0.00 0.00 0.000
5/26/2016 3:06:51a 336 0 1 33 72 71.6 50.4 30.10 11.54 0.0 0 0.00 0.00 0.00 0.000
5/26/2016 3:07:52a 336 0 1 33 72 71.6 50.4 30.10 11.54 0.0 0 0.00 0.00 0.00 0.000
5/26/2016 3:08:52a 336 0 1 33 72 71.5 50.4 30.10 11.54 0.0 0 0.00 0.00 0.00 0.000
5/26/2016 3:09:52a 336 0 1 33 72 71.5 50.4 30.10 11.54 0.0 0 0.00 0.00 0.00 0.000
5/26/2016 3:10:52a 336 0 1 33 72 71.5 50.4 30.10 11.54 0.0 0 0.00 0.00 0.00 0.000
5/26/2016 3:11:52a 336 0 1 33 72 71.5 50.4 30.10 11.54 0.0 0 0.00 0.00 0.00 0.000
5/26/2016 3:12:52a 336 0 1 33 72 71.5 50.3 30.10 11.54 0.0 0 0.00 0.00 0.00 0.000
5/26/2016 3:13:52a 336 0 1 33 72 71.5 50.4 30.10 11.54 0.0 0 0.00 0.00 0.00 0.000
5/26/2016 3:14:52a 336 0 1 33 72 71.5 50.3 30.10 11.54 0.0 0 0.00 0.00 0.00 0.000
5/26/2016 3:15:52a 336 0 1 33 72 71.5 50.3 30.10 11.54 0.0 0 0.00 0.00 0.00 0.000
5/26/2016 3:16:52a 336 0 1 33 72 71.5 50.3 30.10 11.54 0.0 0 0.00 0.00 0.00 0.000
5/26/2016 3:17:52a 336 0 1 33 72 71.5 50.3 30.10 11.54 0.0 0 0.00 0.00 0.00 0.000
5/26/2016 3:18:53a 336 0 1 33 72 71.3 50.3 30.10 11.54 0.0 0 0.00 0.00 0.00 0.000
5/26/2016 3:19:53a 336 0 1 33 72 71.3 50.3 30.10 11.54 0.0 0 0.00 0.00 0.00 0.000
5/26/2016 3:20:53a 336 0 1 33 72 71.3 50.3 30.10 11.54 0.0 0 0.00 0.00 0.00 0.000
5/26/2016 3:21:53a 336 0 1 33 72 71.3 50.2 30.10 11.54 0.0 0 0.00 0.00 0.00 0.000
5/26/2016 3:22:53a 336 0 1 33 72 71.3 50.2 30.10 11.54 0.0 0 0.00 0.00 0.00 0.000
5/26/2016 3:23:53a 336 0 1 33 72 71.3 50.2 30.10 11.54 0.0 0 0.00 0.00 0.00 0.000
5/26/2016 3:24:53a 336 0 1 33 72 71.3 50.2 30.10 11.54 0.0 0 0.00 0.00 0.00 0.000
5/26/2016 3:25:53a 336 0 1 33 72 71.3 50.2 30.10 11.54 0.0 0 0.00 0.00 0.00 0.000
5/26/2016 3:26:53a 336 0 1 33 72 71.3 50.2 30.10 11.54 0.0 0 0.00 0.00 0.00 0.000
5/26/2016 3:27:53a 336 0 1 33 72 71.3 50.2 30.10 11.54 0.0 0 0.00 0.00 0.00 0.000
5/26/2016 3:28:54a 336 1 1 33 73 71.1 50.2 30.10 11.54 0.0 0 0.00 0.00 0.00 0.000
5/26/2016 3:29:54a 336 0 1 33 73 71.1 50.2 30.10 11.54 0.0 0 0.00 0.00 0.00 0.000
5/26/2016 3:30:54a 336 1 1 33 73 71.1 50.2 30.10 11.54 0.0 0 0.00 0.00 0.00 0.000
5/26/2016 3:31:57a 336 2 3 33 73 71.1 50.2 30.10 11.54 0.0 0 0.00 0.00 0.00 0.000
5/26/2016 3:32:57a 336 1 3 33 73 71.1 50.2 30.10 11.54 0.0 0 0.00 0.00 0.00 0.000
5/26/2016 3:33:57a 336 0 3 33 73 71.1 50.2 30.10 11.54 0.0 0 0.00 0.00 0.00 0.000
5/26/2016 3:34:57a 336 0 3 33 73 71.1 50.2 30.10 11.54 0.0 0 0.00 0.00 0.00 0.000
5/26/2016 3:35:57a 336 0 0 33 73 71.1 50.2 30.10 11.54 0.0 0 0.00 0.00 0.00 0.000
5/26/2016 3:36:57a 336 0 0 33 73 71.1 50.2 30.10 11.54 0.0 0 0.00 0.00 0.00 0.000
5/26/2016 3:37:57a 336 0 0 33 73 71.1 50.2 30.10 11.54 0.0 0 0.00 0.00 0.00 0.000
5/26/2016 3:38:57a 336 0 0 33 73 71.1 50.2 30.10 11.54 0.0 0 0.00 0.00 0.00 0.000
5/26/2016 3:39:57a 336 0 0 33 73 71.1 50.2 30.10 11.54 0.0 0 0.00 0.00 0.00 0.000
5/26/2016 3:40:57a 336 0 0 33 73 71.0 50.2 30.10 11.54 0.0 0 0.00 0.00 0.00 0.000
5/26/2016 3:41:58a 336 0 0 33 73 71.0 50.2 30.10 11.54 0.0 0 0.00 0.00 0.00 0.000
5/26/2016 3:42:58a 336 0 0 33 73 71.0 50.2 30.10 11.54 0.0 0 0.00 0.00 0.00 0.000
5/26/2016 3:43:58a 336 0 0 33 73 71.0 50.2 30.10 11.54 0.0 0 0.00 0.00 0.00 0.000
5/26/2016 3:44:58a 336 0 1 33 73 71.0 50.1 30.10 11.54 0.0 0 0.00 0.00 0.00 0.000
5/26/2016 3:45:58a 336 0 1 33 73 71.0 50.1 30.10 11.54 0.0 0 0.00 0.00 0.00 0.000
5/26/2016 3:47:01a 336 0 1 33 73 71.0 50.1 30.10 11.54 0.0 0 0.00 0.00 0.00 0.000
5/26/2016 3:48:01a 336 0 2 33 73 71.0 50.1 30.10 11.54 0.0 0 0.00 0.00 0.00 0.000
5/26/2016 3:49:01a 336 0 2 33 73 71.0 50.0 30.10 11.54 0.0 0 0.00 0.00 0.00 0.000
5/26/2016 3:50:04a 336 0 0 33 73 70.8 50.0 30.10 11.54 0.0 0 0.00 0.00 0.00 0.000
5/26/2016 3:51:04a 336 0 0 33 73 70.8 50.0 30.10 11.54 0.0 0 0.00 0.00 0.00 0.000
5/26/2016 3:52:05a 336 0 1 33 73 70.8 49.9 30.10 11.54 0.0 0 0.00 0.00 0.00 0.000
5/26/2016 3:53:05a 336 0 1 33 73 70.8 49.9 30.10 11.54 0.0 0 0.00 0.00 0.00 0.000
5/26/2016 3:54:05a 336 0 1 33 73 70.8 49.9 30.10 11.54 0.0 0 0.00 0.00 0.00 0.000
5/26/2016 3:55:05a 336 0 1 33 73 70.8 49.8 30.10 11.54 0.0 0 0.00 0.00 0.00 0.000
5/26/2016 3:56:05a 336 0 1 33 73 70.8 49.8 30.10 11.54 0.0 0 0.00 0.00 0.00 0.000
5/26/2016 3:57:05a 336 0 1 33 73 70.8 49.7 30.10 11.54 0.0 0 0.00 0.00 0.00 0.000
5/26/2016 3:58:05a 336 0 1 33 73 70.8 49.7 30.10 11.54 0.0 0 0.00 0.00 0.00 0.000
5/26/2016 3:59:05a 336 0 1 33 73 70.8 49.7 30.10 11.54 0.0 0 0.00 0.00 0.00 0.000
5/26/2016 4:00:05a 336 0 1 33 73 70.8 49.7 30.10 11.54 0.0 0 0.00 0.00 0.00 0.000
5/26/2016 4:01:05a 336 0 1 33 73 70.8 49.7 30.10 11.54 0.0 0 0.00 0.00 0.00 0.000
5/26/2016 4:02:05a 336 0 1 33 73 70.6 49.6 30.10 11.54 0.0 0 0.00 0.00 0.00 0.000
5/26/2016 4:03:05a 336 0 1 33 73 70.6 49.7 30.10 11.54 0.0 0 0.00 0.00 0.00 0.000
5/26/2016 4:04:05a 336 0 1 33 73 70.6 49.6 30.10 11.54 0.0 0 0.00 0.00 0.00 0.000
5/26/2016 4:05:05a 336 0 1 33 73 70.6 49.6 30.10 11.54 0.0 0 0.00 0.00 0.00 0.000
5/26/2016 4:06:06a 336 0 0 33 73 70.6 49.6 30.10 11.54 0.0 0 0.00 0.00 0.00 0.000
5/26/2016 4:07:06a 336 0 0 33 73 70.6 49.6 30.10 11.54 0.0 0 0.00 0.00 0.00 0.000
5/26/2016 4:08:06a 336 0 0 33 73 70.6 49.6 30.10 11.54 0.0 0 0.00 0.00 0.00 0.000
5/26/2016 4:09:06a 336 0 0 33 73 70.6 49.6 30.10 11.54 0.0 0 0.00 0.00 0.00 0.000
5/26/2016 4:10:06a 336 0 0 33 73 70.6 49.6 30.10 11.54 0.0 0 0.00 0.00 0.00 0.000
5/26/2016 4:11:06a 336 0 0 33 74 70.6 49.6 30.10 11.54 0.0 0 0.00 0.00 0.00 0.000
5/26/2016 4:12:06a 336 0 0 33 74 70.6 49.6 30.10 11.54 0.0 0 0.00 0.00 0.00 0.000
5/26/2016 4:13:39a 336 0 0 33 74 70.5 49.6 30.10 11.54 0.0 0 0.00 0.00 0.00 0.000
5/26/2016 4:14:39a 336 0 0 33 74 70.5 49.6 30.10 11.54 0.0 0 0.00 0.00 0.00 0.000
5/26/2016 4:15:39a 336 0 0 33 74 70.5 49.5 30.10 11.54 0.0 0 0.00 0.00 0.00 0.000
5/26/2016 4:16:39a 336 0 0 33 74 70.5 49.5 30.10 11.54 0.0 0 0.00 0.00 0.00 0.000
5/26/2016 4:17:40a 336 0 1 33 74 70.5 49.5 30.10 11.54 0.0 0 0.00 0.00 0.00 0.000
5/26/2016 4:18:40a 336 2 2 33 74 70.5 49.6 30.10 11.54 0.0 0 0.00 0.00 0.00 0.000
5/26/2016 4:19:40a 336 2 3 33 74 70.5 49.5 30.10 11.54 0.0 0 0.00 0.00 0.00 0.000
5/26/2016 4:20:40a 336 2 2 33 74 70.5 49.5 30.10 11.54 0.0 0 0.00 0.00 0.00 0.000
5/26/2016 4:21:40a 336 0 2 33 74 70.5 49.5 30.10 11.54 0.0 0 0.00 0.00 0.00 0.000
5/26/2016 4:22:40a 336 0 2 33 74 70.5 49.5 30.10 11.54 0.0 0 0.00 0.00 0.00 0.000
5/26/2016 4:23:52a 336 0 2 33 74 70.5 49.5 30.10 11.54 0.0 0 0.00 0.00 0.00 0.000
5/26/2016 4:24:52a 336 0 2 33 74 70.5 49.5 30.10 11.54 0.0 0 0.00 0.00 0.00 0.000
5/26/2016 4:25:52a 336 0 2 33 74 70.3 49.5 30.10 11.54 0.0 0 0.00 0.00 0.00 0.000
5/26/2016 4:26:52a 336 0 2 33 74 70.3 49.5 30.10 11.54 0.0 0 0.00 0.00 0.00 0.000
5/26/2016 4:27:52a 336 0 2 33 74 70.3 49.5 30.10 11.54 0.0 0 0.00 0.00 0.00 0.000
5/26/2016 4:28:52a 336 0 2 33 74 70.3 49.4 30.10 11.54 0.0 0 0.00 0.00 0.00 0.000
5/26/2016 4:29:55a 336 0 2 33 74 70.3 49.4 30.10 11.54 0.0 0 0.00 0.00 0.00 0.000
5/26/2016 4:30:55a 336 0 2 33 74 70.3 49.4 30.10 11.54 0.0 0 0.00 0.00 0.00 0.000
5/26/2016 4:31:55a 336 0 2 33 74 70.3 49.4 30.10 11.54 0.0 0 0.00 0.00 0.00 0.000
5/26/2016 4:32:56a 336 0 2 33 74 70.3 49.3 30.10 11.54 0.0 0 0.00 0.00 0.00 0.000
5/26/2016 4:33:56a 336 0 2 33 74 70.3 49.3 30.10 11.54 0.0 0 0.00 0.00 0.00 0.000
5/26/2016 4:34:56a 336 0 2 33 74 70.3 49.3 30.10 11.54 0.0 0 0.00 0.00 0.00 0.000
5/26/2016 4:35:56a 336 0 0 33 74 70.3 49.3 30.10 11.54 0.0 0 0.00 0.00 0.00 0.000
5/26/2016 4:36:56a 336 0 0 33 74 70.1 49.3 30.11 11.54 0.0 0 0.00 0.00 0.00 0.000
5/26/2016 4:37:56a 336 0 0 33 74 70.1 49.3 30.10 11.54 0.0 0 0.00 0.00 0.00 0.000
5/26/2016 4:38:56a 336 0 0 33 74 70.1 49.3 30.11 11.54 0.0 0 0.00 0.00 0.00 0.000
5/26/2016 4:39:56a 336 0 0 33 74 70.1 49.2 30.10 11.54 0.0 0 0.00 0.00 0.00 0.000
5/26/2016 4:40:56a 336 0 0 33 74 70.1 49.2 30.10 11.54 0.0 0 0.00 0.00 0.00 0.000
5/26/2016 4:41:56a 336 0 0 33 74 70.1 49.2 30.10 11.54 0.0 0 0.00 0.00 0.00 0.000
5/26/2016 4:42:56a 336 0 0 33 74 70.1 49.2 30.10 11.54 0.0 0 0.00 0.00 0.00 0.000
5/26/2016 4:43:57a 336 0 0 33 74 70.1 49.2 30.10 11.54 0.0 0 0.00 0.00 0.00 0.000
5/26/2016 4:44:57a 336 0 0 33 74 70.1 49.2 30.10 11.54 0.0 0 0.00 0.00 0.00 0.000
5/26/2016 4:45:57a 336 0 0 33 74 70.1 49.2 30.10 11.54 0.0 0 0.00 0.00 0.00 0.000
5/26/2016 4:46:57a 336 0 0 33 74 70.1 49.2 30.11 11.54 0.0 0 0.00 0.00 0.00 0.000
5/26/2016 4:47:57a 336 0 0 33 74 69.9 49.2 30.11 11.54 0.0 0 0.00 0.00 0.00 0.000
5/26/2016 4:48:57a 336 0 0 33 74 69.9 49.1 30.11 11.54 0.0 0 0.00 0.00 0.00 0.000
5/26/2016 4:49:57a 336 0 0 33 74 69.9 49.1 30.11 11.54 0.0 0 0.00 0.00 0.00 0.000
5/26/2016 4:50:57a 336 0 0 33 74 69.9 49.1 30.11 11.54 0.0 0 0.00 0.00 0.00 0.000
5/26/2016 4:51:57a 336 0 0 33 74 69.9 49.1 30.11 11.54 0.0 0 0.00 0.00 0.00 0.000
5/26/2016 4:52:57a 336 0 0 33 74 69.9 49.1 30.11 11.54 0.0 0 0.00 0.00 0.00 0.000
5/26/2016 4:53:57a 336 0 0 33 75 69.9 49.1 30.10 11.54 0.0 0 0.00 0.00 0.00 0.000
5/26/2016 4:54:57a 336 0 0 33 75 69.9 49.1 30.10 11.54 0.0 0 0.00 0.00 0.00 0.000
5/26/2016 4:55:57a 336 0 0 33 75 69.9 49.1 30.10 11.54 0.0 0 0.00 0.00 0.00 0.000
5/26/2016 4:56:57a 336 0 0 33 75 69.9 49.1 30.10 11.54 0.0 0 0.00 0.00 0.00 0.000
5/26/2016 4:57:58a 336 0 0 34 75 69.9 49.1 30.10 11.54 0.0 0 0.00 0.00 0.00 0.000
5/26/2016 4:58:58a 336 0 0 34 75 69.9 49.0 30.10 11.54 0.0 0 0.00 0.00 0.00 0.000
5/26/2016 4:59:58a 336 0 0 34 75 69.8 49.0 30.10 11.54 0.0 0 0.00 0.00 0.00 0.000
5/26/2016 5:00:58a 336 0 0 34 75 69.8 49.0 30.10 11.54 0.0 0 0.00 0.00 0.00 0.000
5/26/2016 5:02:01a 336 0 0 34 75 69.8 49.0 30.10 11.54 0.0 0 0.00 0.00 0.00 0.000
5/26/2016 5:03:04a 336 0 0 34 75 69.8 49.0 30.10 11.54 0.0 0 0.00 0.00 0.00 0.000
5/26/2016 5:04:04a 336 0 0 34 75 69.8 49.0 30.10 11.54 0.0 0 0.00 0.00 0.00 0.000
5/26/2016 5:05:04a 336 0 0 34 75 69.8 49.0 30.10 11.54 0.0 0 0.00 0.00 0.00 0.000
5/26/2016 5:06:04a 336 0 0 34 75 69.8 48.9 30.10 11.54 0.0 0 0.00 0.00 0.00 0.000
5/26/2016 5:07:04a 336 0 0 34 75 69.8 48.9 30.10 11.54 0.0 0 0.00 0.00 0.00 0.000
5/26/2016 5:08:04a 336 0 0 34 75 69.8 48.9 30.10 11.54 0.0 0 0.00 0.00 0.00 0.000
5/26/2016 5:09:04a 336 0 0 34 75 69.8 48.8 30.10 11.54 0.0 0 0.00 0.00 0.00 0.000
5/26/2016 5:10:05a 336 0 0 34 75 69.8 48.8 30.10 11.54 0.0 0 0.00 0.00 0.00 0.000
5/26/2016 5:11:05a 336 0 0 34 75 69.6 48.8 30.10 11.54 0.0 0 0.00 0.00 0.00 0.000
5/26/2016 5:12:05a 336 0 0 34 75 69.6 48.8 30.10 11.54 0.0 0 0.00 0.00 0.00 0.000
5/26/2016 5:13:05a 336 0 0 34 75 69.6 48.8 30.10 11.54 0.0 0 0.00 0.00 0.00 0.000
5/26/2016 5:14:05a 336 0 0 34 75 69.6 48.8 30.10 11.54 0.0 0 0.00 0.00 0.00 0.000
5/26/2016 5:15:05a 336 0 0 34 75 69.6 48.8 30.10 11.54 0.0 0 0.00 0.00 0.00 0.000
5/26/2016 5:16:06a 336 0 0 34 75 69.6 48.8 30.10 11.54 0.0 0 0.00 0.00 0.00 0.000
5/26/2016 5:17:09a 336 0 0 34 75 69.6 48.8 30.10 11.54 0.0 0 0.00 0.00 0.00 0.000
5/26/2016 5:18:09a 336 0 1 34 75 69.6 48.7 30.10 11.54 0.0 0 0.00 0.00 0.00 0.000
5/26/2016 5:19:08a 336 1 1 34 75 69.6 48.7 30.10 11.54 0.0 0 0.00 0.00 0.00 0.000
5/26/2016 5:20:08a 336 0 1 34 75 69.6 48.7 30.10 11.54 0.0 0 0.00 0.00 0.00 0.000
5/26/2016 5:21:08a 336 0 1 34 75 69.4 48.7 30.10 11.54 0.0 0 0.00 0.00 0.00 0.000
5/26/2016 5:22:11a 336 1 1 34 75 69.4 48.6 30.10 11.54 0.0 0 0.00 0.00 0.00 0.000
5/26/2016 5:23:24a 336 3 3 34 75 69.4 48.6 30.11 11.54 0.0 0 0.00 0.00 0.00 0.000
5/26/2016 5:24:25a 336 0 3 34 75 69.4 48.6 30.10 11.54 0.0 0 0.00 0.00 0.00 0.000
5/26/2016 5:25:30a 336 1 3 34 75 69.4 48.5 30.11 11.54 0.0 0 0.00 0.00 0.00 0.000
5/26/2016 5:26:30a 336 1 3 34 75 69.4 48.5 30.10 11.54 0.0 0 0.00 0.00 0.00 0.000

© All rights reserved. Unauthorized duplication or distribution is prohibited

Never base important decisions on this or any weather information obtained from the Internet

California State University, San Bernardino
5500 University Parkway, San Bernardino, CA. 92407
Phone: (909) 537-7558, Email: Weather Master
Last Updated: